O3B FM17 (44114 NORAD) Tracking and Keplerian Element Data

This shows tracking and keplerian element data for the satellite.

Feedback or suggestion? Click here.




ElementValue
Catalog44114
NameO3B FM17
Epoch Orbit40
Epoch Day102.62333336
Epoch Year2019
RAAN328.0998
Inclination0.0357
Eccentricity0.0003583
Argument of Perigee152.0738
Mean Anonmoly239.8621
Mean Motion5.12375599
Decay Rate-1.9E-07
L11 44114U 19020C 19102.62333336 -.00000019 00000-0 00000-0 0 9999
L22 44114 0.0357 328.0998 0003583 152.0738 239.8621 5.12375599 406

Live tracking and technical data element details for O3B FM17 (NORAD 44114). O3B FM17 can be tracked NOW for your location showing map with azimuth and elevation plus other details from your city location.

Track the satellite on the map from your city or location and see movement details for azimuth, elevation, latitude, longitude, range, height, and movement on the map or in text.







IsCatalogInMostPopularTable: catalog: 44114, numindb: 6
Update: records affected: 1



GetName: 44114 O3B FM17

Hit Count: updated at: Tue, 23 Apr 2019 02:11:11 GMT